RH
66 60 56 58 55 74 90 44 4 3 4 4 4 5 5 5 5 5 7 8 9 11 16 17 18 19 20 19 19 20 19 18 18 21 19 19 16 15 15 15 14 13 9
65 62 67 68 69 70 72 4 4 4 5 5 6 6 5 5 6 8 9 10 15 19 21 22 22 22 23 22 22 21 20 21 22 23 22 19 17 16 16 16 15 10 6
59 52 72 98 96 53 3 4 4 5 6 6 6 6 6 7 9 10 13 19 22 24 22 18 18 21 23 21 20 20 23 27 27 23 22 19 18 17 17 16 12 7 7
25 38 52 36 3 3 4 5 6 6 7 7 7 7 8 9 11 14 22 25 24 20 17 19 22 22 20 20 20 22 28 31 27 25 22 20 18 18 17 14 8 6 22
7 16 6 3 3 4 5 6 6 7 8 8 8 9 10 12 16 22 26 25 21 21 19 20 21 21 20 20 23 28 32 31 28 25 21 20 18 18 16 10 6 21 21
2 2 3 3 4 6 6 7 8 8 8 9 9 10 13 16 23 27 27 25 26 24 20 20 21 21 19 23 27 33 33 30 28 26 23 20 18 18 12 6 18 24 23
3 3 4 5 6 6 8 9 9 9 9 10 11 14 17 22 26 26 23 21 19 21 20 21 21 21 20 28 34 40 39 35 31 27 23 20 18 15 9 10 30 30 43
4 4 5 6 6 8 9 10 11 10 10 13 15 18 21 23 22 20 19 19 19 22 20 20 21 20 25 31 41 46 44 37 34 28 24 21 18 13 6 17 26 42 61
4 5 6 6 7 9 10 12 12 12 14 16 18 19 20 20 19 20 20 19 20 22 19 21 20 23 29 33 43 49 46 40 36 29 25 22 18 11 7 16 27 39 50
5 6 7 6 8 10 12 13 13 14 16 16 17 18 19 20 20 20 20 19 22 20 21 21 23 27 32 36 42 47 43 39 34 30 27 23 17 9 8 16 25 35 38
6 7 7 7 9 10 13 14 15 15 16 16 17 18 20 21 21 20 19 20 22 20 21 23 26 32 33 37 44 47 41 39 32 29 26 23 17 9 11 20 26 33 41
7 8 8 8 9 11 14 14 16 17 17 18 19 20 20 21 21 19 19 23 21 22 24 26 33 35 35 39 48 49 43 41 34 31 28 23 18 8 15 25 32 41 51
8 9 9 9 10 12 14 15 16 17 18 19 19 20 20 21 19 19 20 24 23 25 26 32 37 37 39 45 52 48 44 40 35 32 29 23 19 9 14 27 39 50 63
9 10 10 9 10 13 14 15 16 17 17 19 20 20 19 18 18 20 23 25 26 27 29 38 38 39 42 53 54 47 45 39 34 32 30 24 19 9 11 27 44 61 70
9 10 10 10 11 13 15 16 17 18 19 19 18 17 17 18 19 22 24 26 27 28 34 39 38 40 50 57 54 46 46 40 37 34 31 24 19 9 9 22 42 61 52
9 10 13 14 14 14 16 17 18 18 18 18 16 17 18 20 21 23 24 26 28 31 37 41 39 47 59 58 54 49 46 40 37 35 31 25 19 10 9 20 45 29 7
10 12 14 15 15 16 17 18 20 19 18 18 17 18 21 23 24 25 26 28 30 35 40 41 47 60 59 57 52 49 44 40 36 34 31 26 20 11 9 30 34 6 6
12 11 12 13 14 16 17 19 20 20 18 18 19 20 23 25 27 28 29 30 33 39 42 44 57 61 60 58 50 50 43 41 36 36 32 26 20 10 11 35 9 6 7
9 10 13 13 13 15 17 20 21 20 19 20 21 22 24 26 28 29 30 33 36 43 46 51 59 62 62 59 52 48 43 41 37 37 33 26 20 10 17 27 6 6 7
11 11 11 15 14 15 16 19 20 21 21 21 22 23 25 28 29 30 33 35 42 49 50 60 65 68 66 56 55 48 47 43 39 38 34 27 20 10 21 20 6 7 7
17 12 13 14 17 18 18 19 20 21 22 22 23 25 28 31 33 36 36 39 50 53 58 70 73 72 65 56 57 48 48 44 41 39 34 28 21 10 23 15 7 7 7
24 24 18 16 23 24 23 23 24 24 25 27 28 31 32 36 39 39 40 50 55 57 74 76 80 74 63 63 57 52 51 46 44 40 34 29 22 10 25 15 7 7 8
42 44 31 25 26 29 30 33 35 33 32 32 32 35 38 42 42 45 55 59 62 77 78 86 84 75 65 67 56 53 52 48 46 41 34 30 24 11 26 17 7 8 8
66 75 75 54 39 35 36 38 40 40 40 41 42 42 44 46 54 66 72 87 82 82 89 93 86 77 71 67 52 52 52 47 46 40 33 30 26 12 25 21 7 8 8
100 100 100 89 73 68 59 51 46 46 46 46 46 46 47 69 89 97 92 90 92 94 97 96 89 81 75 64 53 53 51 49 47 38 30 30 28 15 19 30 8 8 9
100 100 100 99 98 82 64 54 53 53 55 59 65 84 96 98 99 99 98 99 99 100 100 97 94 85 74 61 53 55 54 51 48 38 28 30 31 19 14 36 11 8 9
Wind_Speed
30 29 29 29 26 25 24 25 20 19 18 20 20 18 17 16 15 15 16 17 18 20 22 24 27 29 32 35 38 41 45 48 50 54 56 59 64 66 68 70 72 75 75
26 25 24 25 27 25 22 21 19 17 18 19 18 16 15 13 13 14 15 16 17 19 22 24 27 30 34 37 41 45 48 50 52 55 57 62 66 67 69 71 73 75 73
26 26 23 28 21 14 19 19 19 18 17 16 15 15 13 12 12 13 13 15 17 19 22 26 30 33 36 40 43 47 49 52 55 56 59 65 66 68 70 72 74 74 64
24 24 23 21 19 20 19 19 18 17 17 16 15 12 11 11 11 11 13 15 16 21 25 28 31 34 38 43 46 48 51 53 56 57 62 64 67 69 71 73 74 66 52
21 21 20 20 20 19 19 18 18 17 17 15 13 11 10 10 9 11 14 16 20 24 27 29 33 37 41 45 47 50 53 55 56 59 63 65 67 69 71 73 70 52 48
19 20 21 20 19 19 19 19 18 16 15 13 11 10 9 8 9 13 16 19 23 27 29 31 35 39 43 47 48 52 55 57 57 61 63 65 67 68 71 70 55 47 41
20 20 21 19 19 19 19 18 15 14 13 12 10 8 8 9 12 16 20 23 26 28 31 33 38 42 46 47 49 52 56 57 58 61 62 65 66 68 70 59 46 47 42
20 20 20 19 19 19 18 16 15 14 13 11 10 9 10 12 16 19 23 25 28 29 32 36 40 44 47 46 48 53 56 57 58 61 63 65 66 67 65 49 43 43 43
20 20 20 21 20 19 17 16 16 15 14 12 11 11 13 15 18 22 25 28 29 31 34 38 42 46 47 47 50 53 56 56 59 61 63 64 65 66 58 45 42 40 41
22 23 23 23 21 20 19 18 17 16 15 14 14 15 16 18 21 24 27 29 31 33 37 40 44 47 47 48 51 53 55 55 57 60 62 62 63 61 52 44 41 41 41
25 26 25 24 24 22 21 20 19 18 17 17 17 18 19 22 24 26 27 29 31 35 38 42 45 47 47 49 52 54 55 54 57 59 60 60 61 57 49 43 42 41 42
27 26 25 26 25 24 24 23 21 21 20 20 21 22 23 24 25 26 28 30 33 36 40 43 45 46 48 50 53 54 54 55 56 59 58 59 59 53 46 44 43 43 44
26 27 27 27 27 25 25 25 24 23 23 23 24 25 25 25 26 27 28 31 34 37 41 43 44 46 47 50 52 54 52 54 56 58 57 58 58 52 45 44 44 45 45
27 28 28 28 28 27 26 26 26 26 25 24 26 26 26 26 27 28 30 33 36 39 41 43 45 46 48 51 52 53 51 53 55 56 55 56 56 53 46 43 44 46 46
28 28 28 28 29 28 27 27 27 27 26 27 27 27 27 28 29 30 31 34 37 40 42 43 45 46 48 50 52 51 50 53 54 55 53 55 55 53 47 43 46 47 45
30 29 28 28 29 29 30 29 28 28 28 29 28 28 28 29 30 31 33 36 38 40 42 44 45 46 48 49 50 49 49 51 53 53 52 54 55 54 47 44 47 45 43
32 32 32 32 32 32 31 31 30 30 30 29 29 30 29 30 31 33 34 37 38 40 42 43 45 48 48 49 49 46 48 50 51 51 51 53 54 54 46 45 45 42 41
36 35 35 36 36 35 33 32 31 31 31 31 31 31 32 33 33 34 35 36 38 40 42 43 46 48 48 48 47 45 47 49 50 49 50 52 53 52 45 44 42 40 38
40 38 38 37 36 36 34 33 32 32 32 33 34 34 34 35 35 36 36 37 38 40 41 43 47 47 47 47 44 44 46 48 49 48 49 51 52 50 44 42 40 37 36
42 41 40 38 37 36 35 34 34 34 35 36 36 36 37 36 36 37 37 38 38 39 40 44 47 45 45 45 41 43 45 47 47 46 48 50 51 48 41 39 37 35 33
40 41 41 40 39 38 38 36 36 37 36 36 36 36 37 36 36 37 38 38 38 39 41 46 44 44 43 41 39 42 43 45 45 44 45 48 50 46 39 36 34 32 31
39 37 39 42 41 40 39 39 38 37 37 36 36 36 36 35 36 36 37 38 38 40 44 44 43 41 40 37 38 41 42 43 43 43 44 46 48 43 36 34 32 30 28
39 36 37 39 39 40 38 37 36 37 37 37 36 36 36 36 35 35 36 36 39 42 42 42 41 38 37 35 38 39 40 41 41 41 43 44 46 41 34 31 29 27 26
41 38 37 38 37 38 37 36 35 35 35 36 36 37 36 35 34 34 36 38 38 40 41 40 38 36 34 34 37 38 39 39 38 39 41 42 43 40 32 28 26 24 24
44 45 43 43 40 38 36 37 37 37 37 36 37 37 36 33 35 35 35 37 37 39 39 38 35 34 32 33 35 36 37 37 36 37 40 40 41 38 32 26 23 21 21
51 49 46 48 43 42 38 36 36 36 35 35 36 36 35 33 34 35 36 37 37 37 35 33 33 32 30 31 33 35 35 36 35 36 39 39 38 36 32 25 22 19 18
Wind_Direction
253 256 258 252 248 253 250 251 242 248 267 275 275 276 280 284 285 290 300 309 317 320 323 324 323 324 325 326 327 328 329 329 329 329 329 328 329 327 325 323 321 321 323
246 251 255 246 244 244 246 239 250 264 266 265 268 277 279 280 288 297 309 317 320 323 326 327 327 329 330 330 331 331 331 330 331 332 330 331 331 329 327 324 323 324 326
244 243 244 243 244 237 234 245 255 257 256 263 270 272 274 283 295 309 316 319 324 327 328 328 328 329 329 330 331 331 332 332 333 332 333 333 331 330 327 326 327 329 327
241 239 240 247 229 227 238 248 252 253 259 261 263 266 278 293 304 312 317 321 323 324 327 328 329 330 330 330 330 331 332 334 334 334 334 333 333 330 329 329 331 329 325
235 234 230 221 225 236 244 246 248 254 254 253 256 267 283 294 304 310 315 318 320 324 326 328 328 330 331 331 331 332 333 335 335 335 335 335 333 331 330 332 332 330 332
221 221 220 224 233 238 237 243 248 247 246 248 255 268 282 292 301 309 313 315 318 322 324 326 328 330 331 331 332 333 334 336 336 336 336 335 333 333 335 336 333 335 338
222 221 227 230 231 231 237 240 242 244 244 248 258 269 279 291 301 306 311 313 315 317 321 324 326 329 331 331 333 334 335 336 335 336 336 335 334 334 339 339 338 340 343
228 228 233 230 228 234 237 240 244 243 243 246 255 267 280 291 298 305 310 313 314 316 319 322 325 329 330 331 333 335 336 335 335 335 336 336 336 338 342 342 342 344 343
233 233 231 228 229 235 238 243 243 242 241 247 257 269 281 289 298 306 310 312 314 315 320 322 326 329 330 330 334 335 336 335 335 335 336 337 338 342 345 344 343 344 343
231 232 230 227 229 232 237 241 241 243 246 253 263 274 283 292 300 305 310 311 313 317 321 325 327 329 330 331 333 335 335 335 335 336 337 338 340 345 344 344 343 343 342
233 233 231 229 231 233 237 241 243 247 253 259 269 278 286 293 300 304 307 308 312 317 321 325 327 328 330 330 333 334 334 335 336 336 337 339 342 346 343 342 341 340 340
237 238 234 231 234 235 238 243 246 250 256 263 271 278 286 293 298 301 304 306 312 317 322 325 326 328 329 331 332 334 335 336 335 336 338 340 344 345 342 341 340 339 339
237 239 237 235 237 240 242 245 248 253 259 265 273 280 286 292 295 299 302 305 311 316 321 323 325 327 329 330 332 334 334 335 335 337 339 341 344 345 339 339 339 338 338
235 240 241 239 240 243 245 248 252 256 261 268 273 280 286 290 293 297 300 304 310 315 320 323 324 327 329 330 332 333 333 334 335 338 339 341 344 345 338 338 338 337 337
232 238 243 244 245 246 249 251 254 258 262 267 273 279 283 287 291 295 299 303 309 315 319 321 324 327 329 330 332 332 333 334 336 338 340 342 346 346 339 337 338 337 338
237 236 239 242 245 246 249 252 254 258 263 267 274 277 279 284 288 293 297 303 310 315 318 321 323 326 328 329 331 331 332 333 336 338 339 341 346 347 341 339 339 341 341
237 237 238 240 244 248 250 253 255 258 263 268 271 275 279 283 288 294 297 303 310 314 317 320 323 326 327 328 329 329 331 333 336 338 339 342 347 348 343 343 343 345 346
236 238 240 242 245 248 250 253 257 261 264 268 271 273 278 282 289 293 296 303 309 312 315 318 322 325 326 327 328 329 331 333 336 339 340 343 348 349 345 346 346 348 351
242 242 243 245 248 250 252 253 256 261 265 267 271 274 278 283 289 292 297 302 308 310 312 317 322 324 324 325 327 328 330 332 337 338 340 343 349 349 347 348 349 352 356
243 245 247 247 248 251 253 254 257 260 262 266 271 275 279 283 288 291 296 302 306 308 312 317 320 321 323 325 325 328 330 333 337 338 340 344 350 350 348 349 351 355 0
241 244 247 247 248 250 251 255 259 262 265 267 270 273 277 281 285 290 296 301 304 307 311 315 317 319 322 322 324 328 330 333 336 338 341 345 351 350 348 350 352 358 4
244 243 246 248 248 249 252 255 258 262 265 267 268 271 275 280 284 290 296 299 302 305 310 312 315 318 320 320 324 328 330 334 336 337 342 346 352 350 347 350 353 0 6
247 245 244 247 250 251 252 255 259 260 262 264 267 271 274 279 285 289 293 296 300 304 308 311 313 316 318 319 324 327 331 333 335 338 342 346 353 350 347 349 352 1 6
247 250 251 253 253 254 257 258 257 258 259 262 265 269 274 279 283 287 291 296 299 302 306 309 311 314 316 319 324 327 330 332 335 336 342 347 353 350 346 348 350 0 5
249 250 252 256 254 254 253 253 253 254 258 262 266 271 275 278 284 288 291 294 298 301 305 307 309 313 315 320 325 327 331 332 334 336 342 347 353 351 346 345 346 355 2
237 244 247 254 256 258 256 254 253 255 258 262 265 271 278 282 287 289 292 295 298 301 303 304 306 311 314 321 326 330 332 332 333 335 340 346 351 353 345 341 339 345 354